Location: Crescent
(42.8242°N, 73.7329°W)
Time: 05:45:30
(UTC+00:00)

A-11 Canister half - Pass Details

Date: 21 February 2026
Orbit: 1524 x 1683 km, 47.3° (Epoch: 14 March)

Event Time Altitude Azimuth Distance (km) Brightness Sun altitude
Rises 02:26:27 0° 295° (WNW) 4,678 12.4 -42.3°
Reaches altitude 10° 02:29:30 10° 293° (WNW) 3,693 11.6 -42.8°
Enters shadow 02:36:08 49° 270° (W) 1,894 9.5 -43.8°
